SFR112 FACT-FAOR

Flight info

Callsign SFR112
Flight time N/A
Altitude 39000
Route TETAN1A TETAN UZ2 NIBEX NIBEX1D
Aircraft B738/M-SDE2E3FGHIRWXY/LB1

Departure

Time 2026-05-07 11:00
Airport Cape Town International Airport (FACT)

Arrival

Time N/A
Airport O.R. Tambo International Airport (FAOR)
Time Latitude Longitude Altitude Speed Heading
2026-05-07 10:40 -33.96987 18.59840 153 ft 0 kts 254°
2026-05-07 10:50 -33.96984 18.59853 153 ft 4 kts 257°
2026-05-07 10:50 -33.96980 18.59885 153 ft 4 kts 272°
2026-05-07 10:50 -33.96985 18.59916 153 ft 4 kts 301°
2026-05-07 10:50 -33.97000 18.59933 153 ft 1 kts 344°
2026-05-07 10:51 -33.97004 18.59934 153 ft 2 kts 344°
2026-05-07 10:54 -33.97002 18.59934 153 ft 1 kts 344°
2026-05-07 10:54 -33.96967 18.59922 153 ft 9 kts 345°
2026-05-07 10:54 -33.96885 18.59895 153 ft 15 kts 345°
2026-05-07 10:55 -33.96769 18.59858 153 ft 17 kts 345°
2026-05-07 10:55 -33.96674 18.59827 153 ft 13 kts 345°
2026-05-07 10:55 -33.96603 18.59807 153 ft 10 kts 347°
2026-05-07 10:55 -33.96535 18.59784 153 ft 10 kts 347°
2026-05-07 10:56 -33.96465 18.59770 153 ft 11 kts 350°
2026-05-07 10:56 -33.96380 18.59752 153 ft 14 kts 350°
2026-05-07 10:56 -33.96283 18.59732 153 ft 12 kts 350°
2026-05-07 10:56 -33.96214 18.59744 153 ft 10 kts 43°
2026-05-07 10:57 -33.96163 18.59804 152 ft 11 kts 45°
2026-05-07 10:57 -33.96114 18.59863 153 ft 9 kts 45°
2026-05-07 10:57 -33.96077 18.59908 153 ft 6 kts 45°
2026-05-07 10:57 -33.96072 18.59915 153 ft 0 kts 45°
2026-05-07 10:58 -33.96071 18.59916 153 ft 1 kts 45°
2026-05-07 10:58 -33.96046 18.59947 153 ft 9 kts 50°
2026-05-07 10:58 -33.96039 18.60019 153 ft 7 kts 130°
2026-05-07 10:59 -33.96086 18.60037 153 ft 10 kts 165°
2026-05-07 10:59 -33.96313 18.60110 152 ft 71 kts 165°
2026-05-07 10:59 -33.97018 18.60333 158 ft 139 kts 165°
2026-05-07 10:59 -33.98094 18.60679 605 ft 162 kts 163°
2026-05-07 11:00 -33.99158 18.61051 1628 ft 157 kts 163°
2026-05-07 11:00 -34.00240 18.61435 2321 ft 173 kts 162°
2026-05-07 11:00 -34.01478 18.61986 2573 ft 205 kts 146°
2026-05-07 11:00 -34.02282 18.63455 3031 ft 221 kts 101°
2026-05-07 11:01 -34.02055 18.65313 3554 ft 244 kts 68°
2026-05-07 11:01 -34.01212 18.67163 4195 ft 258 kts 63°
2026-05-07 11:01 -34.00289 18.69048 5079 ft 263 kts 62°
2026-05-07 11:01 -33.99351 18.70962 5938 ft 267 kts 63°
2026-05-07 11:02 -33.98410 18.72906 6798 ft 272 kts 63°
2026-05-07 11:02 -33.97455 18.74901 7589 ft 276 kts 63°
2026-05-07 11:02 -33.96502 18.76912 8416 ft 280 kts 64°
2026-05-07 11:02 -33.95535 18.78969 9245 ft 284 kts 63°
2026-05-07 11:03 -33.94555 18.81065 10051 ft 290 kts 64°
2026-05-07 11:03 -33.93554 18.83213 10622 ft 303 kts 64°
2026-05-07 11:03 -33.92482 18.85526 10821 ft 328 kts 63°
2026-05-07 11:03 -33.91366 18.87931 11363 ft 338 kts 63°
2026-05-07 11:04 -33.90208 18.90423 12066 ft 344 kts 63°
2026-05-07 11:04 -33.89031 18.92952 12810 ft 349 kts 63°
2026-05-07 11:04 -33.87839 18.95515 13550 ft 354 kts 64°
2026-05-07 11:04 -33.86627 18.98122 14218 ft 360 kts 64°
2026-05-07 11:05 -33.85397 19.00767 14879 ft 364 kts 63°
2026-05-07 11:05 -33.84157 19.03431 15555 ft 368 kts 63°
2026-05-07 11:05 -33.82899 19.06130 16238 ft 371 kts 63°
2026-05-07 11:05 -33.81629 19.08857 16900 ft 375 kts 63°
2026-05-07 11:06 -33.80362 19.11572 17554 ft 380 kts 63°
2026-05-07 11:06 -33.79063 19.14357 18198 ft 384 kts 63°
2026-05-07 11:06 -33.77749 19.17172 18760 ft 389 kts 63°
2026-05-07 11:06 -33.76414 19.20030 19295 ft 394 kts 63°
2026-05-07 11:07 -33.75069 19.22906 19893 ft 396 kts 63°
2026-05-07 11:07 -33.73708 19.25811 20413 ft 401 kts 62°
2026-05-07 11:07 -33.72329 19.28755 20922 ft 406 kts 62°
2026-05-07 11:07 -33.70935 19.31728 21444 ft 410 kts 62°
2026-05-07 11:08 -33.69530 19.34725 21954 ft 415 kts 62°
2026-05-07 11:08 -33.68122 19.37723 22432 ft 420 kts 62°
2026-05-07 11:08 -33.66678 19.40788 22934 ft 424 kts 60°
2026-05-07 11:08 -33.65053 19.43756 23429 ft 429 kts 53°
2026-05-07 11:09 -33.63222 19.46599 23917 ft 432 kts 51°
2026-05-07 11:09 -33.61326 19.49429 24322 ft 436 kts 51°
2026-05-07 11:09 -33.59413 19.52265 24775 ft 438 kts 51°
2026-05-07 11:09 -33.57499 19.55120 25227 ft 441 kts 51°
2026-05-07 11:10 -33.55582 19.58005 25644 ft 444 kts 51°
2026-05-07 11:10 -33.53657 19.60922 26043 ft 448 kts 51°
2026-05-07 11:10 -33.51727 19.63859 26434 ft 450 kts 51°
2026-05-07 11:10 -33.49811 19.66779 26794 ft 453 kts 51°
2026-05-07 11:11 -33.47859 19.69755 27200 ft 455 kts 51°
2026-05-07 11:11 -33.45896 19.72742 27610 ft 458 kts 51°
2026-05-07 11:11 -33.43924 19.75742 27982 ft 461 kts 51°
2026-05-07 11:11 -33.41938 19.78759 28356 ft 463 kts 51°
2026-05-07 11:12 -33.39932 19.81803 28726 ft 466 kts 51°
2026-05-07 11:12 -33.37919 19.84856 29110 ft 468 kts 51°
2026-05-07 11:12 -33.35900 19.87915 29477 ft 470 kts 51°
2026-05-07 11:12 -33.33865 19.90997 29757 ft 474 kts 51°
2026-05-07 11:13 -33.31812 19.94104 30048 ft 477 kts 50°
2026-05-07 11:13 -33.29774 19.97182 30377 ft 479 kts 50°
2026-05-07 11:13 -33.27638 20.00242 30676 ft 480 kts 47°
2026-05-07 11:13 -33.25419 20.03237 30977 ft 481 kts 46°
2026-05-07 11:14 -33.23166 20.06197 31254 ft 483 kts 46°
2026-05-07 11:14 -33.20889 20.09164 31515 ft 485 kts 46°
2026-05-07 11:14 -33.18610 20.12137 31783 ft 487 kts 46°
2026-05-07 11:14 -33.16326 20.15131 32070 ft 488 kts 46°
2026-05-07 11:15 -33.14053 20.18124 32476 ft 485 kts 46°
2026-05-07 11:15 -33.11828 20.21066 32904 ft 483 kts 46°
2026-05-07 11:15 -33.09586 20.24033 33248 ft 482 kts 46°
2026-05-07 11:15 -33.07339 20.27007 33573 ft 482 kts 46°
2026-05-07 11:16 -33.05099 20.29970 33896 ft 482 kts 46°
2026-05-07 11:16 -33.02855 20.32937 34205 ft 481 kts 46°
2026-05-07 11:16 -33.00608 20.35904 34358 ft 484 kts 46°
2026-05-07 11:16 -32.98347 20.38884 34500 ft 487 kts 46°
2026-05-07 11:17 -32.96081 20.41871 34779 ft 486 kts 46°
2026-05-07 11:17 -32.93843 20.44816 35068 ft 484 kts 45°
2026-05-07 11:17 -32.91590 20.47781 35360 ft 483 kts 45°
2026-05-07 11:17 -32.89339 20.50740 35681 ft 481 kts 45°
2026-05-07 11:18 -32.87097 20.53685 35956 ft 480 kts 45°
2026-05-07 11:18 -32.84852 20.56630 36143 ft 481 kts 45°
2026-05-07 11:18 -32.82605 20.59576 36346 ft 482 kts 45°
2026-05-07 11:18 -32.80354 20.62525 36611 ft 481 kts 45°
2026-05-07 11:19 -32.78111 20.65461 36868 ft 480 kts 45°
2026-05-07 11:19 -32.75862 20.68403 37074 ft 480 kts 45°
2026-05-07 11:19 -32.71339 20.74309 37161 ft 486 kts 45°
2026-05-07 11:20 -32.66820 20.80203 37151 ft 486 kts 45°
2026-05-07 11:20 -32.62304 20.86087 37144 ft 479 kts 45°
2026-05-07 11:21 -32.57826 20.91908 37168 ft 477 kts 45°
2026-05-07 11:21 -32.53354 20.97712 37154 ft 477 kts 45°
2026-05-07 11:22 -32.48892 21.03493 37220 ft 481 kts 45°
2026-05-07 11:22 -32.46631 21.06417 37386 ft 482 kts 45°
2026-05-07 11:22 -32.44369 21.09344 37625 ft 481 kts 45°
2026-05-07 11:23 -32.42114 21.12258 37863 ft 480 kts 44°
2026-05-07 11:23 -32.39855 21.15176 38051 ft 481 kts 44°
2026-05-07 11:23 -32.37593 21.18094 38199 ft 481 kts 44°
2026-05-07 11:23 -32.35327 21.21015 38316 ft 483 kts 44°
2026-05-07 11:24 -32.33055 21.23942 38460 ft 484 kts 44°
2026-05-07 11:24 -32.30778 21.26872 38653 ft 483 kts 44°
2026-05-07 11:24 -32.28505 21.29795 38856 ft 483 kts 44°
2026-05-07 11:24 -32.26264 21.32676 38995 ft 482 kts 44°
2026-05-07 11:25 -32.23989 21.35597 39102 ft 483 kts 44°
2026-05-07 11:25 -32.21714 21.38516 39136 ft 485 kts 44°
2026-05-07 11:25 -32.17120 21.44400 39148 ft 489 kts 44°
2026-05-07 11:26 -32.12488 21.50327 39151 ft 493 kts 44°
2026-05-07 11:26 -32.07817 21.56293 39147 ft 496 kts 44°
2026-05-07 11:27 -32.03202 21.62183 39121 ft 488 kts 44°
2026-05-07 11:27 -31.98622 21.68018 39131 ft 483 kts 44°
2026-05-07 11:28 -31.94060 21.73816 39137 ft 482 kts 44°
2026-05-07 11:28 -31.89505 21.79596 39134 ft 481 kts 44°
2026-05-07 11:29 -31.84950 21.85368 39137 ft 481 kts 44°
2026-05-07 11:29 -31.80423 21.91096 39137 ft 482 kts 44°
2026-05-07 11:30 -31.75854 21.96868 39139 ft 483 kts 44°
2026-05-07 11:30 -31.71270 22.02649 39117 ft 484 kts 43°
2026-05-07 11:31 -31.66668 22.08445 39132 ft 486 kts 43°
2026-05-07 11:31 -31.62052 22.14249 39131 ft 487 kts 43°
2026-05-07 11:32 -31.55131 22.22937 39129 ft 489 kts 43°
2026-05-07 11:33 -31.50481 22.28761 39129 ft 489 kts 43°
2026-05-07 11:33 -31.45825 22.34585 39124 ft 490 kts 43°
2026-05-07 11:34 -31.41166 22.40403 39120 ft 489 kts 43°
2026-05-07 11:34 -31.36541 22.46169 39102 ft 489 kts 43°
2026-05-07 11:35 -31.31895 22.51954 39110 ft 488 kts 43°
2026-05-07 11:35 -31.27248 22.57729 39117 ft 487 kts 43°
2026-05-07 11:36 -31.22615 22.63479 39108 ft 486 kts 43°
2026-05-07 11:36 -31.17982 22.69221 39107 ft 485 kts 43°
2026-05-07 11:37 -31.13385 22.74909 39104 ft 485 kts 43°
2026-05-07 11:37 -31.08756 22.80630 39102 ft 484 kts 43°
2026-05-07 11:38 -31.04129 22.86338 39073 ft 484 kts 43°
2026-05-07 11:38 -30.99522 22.91997 39093 ft 484 kts 42°
2026-05-07 11:39 -30.94873 22.97687 39108 ft 486 kts 42°
2026-05-07 11:39 -30.90204 23.03395 39113 ft 487 kts 42°
2026-05-07 11:40 -30.85520 23.09118 39094 ft 489 kts 42°
2026-05-07 11:40 -30.81613 23.13885 39104 ft 490 kts 42°
2026-05-07 11:41 -30.76131 23.20565 39106 ft 492 kts 42°
2026-05-07 11:41 -30.71396 23.26325 39078 ft 493 kts 42°
2026-05-07 11:42 -30.67453 23.31115 39096 ft 493 kts 42°
2026-05-07 11:42 -30.61904 23.37846 39105 ft 494 kts 42°
2026-05-07 11:43 -30.57183 23.43562 39096 ft 494 kts 42°
2026-05-07 11:43 -30.52431 23.49309 39100 ft 493 kts 42°
2026-05-07 11:44 -30.48482 23.54077 39109 ft 492 kts 42°
2026-05-07 11:44 -30.43738 23.59797 39106 ft 492 kts 42°
2026-05-07 11:45 -30.38234 23.66423 39105 ft 491 kts 42°
2026-05-07 11:45 -30.34304 23.71148 39103 ft 489 kts 41°
2026-05-07 11:46 -30.29588 23.76808 39102 ft 488 kts 41°
2026-05-07 11:46 -30.24872 23.82460 39105 ft 487 kts 41°
2026-05-07 11:47 -30.19399 23.89010 39118 ft 487 kts 41°
2026-05-07 11:47 -30.15458 23.93718 39109 ft 487 kts 41°
2026-05-07 11:48 -30.10775 23.99307 39116 ft 487 kts 41°
2026-05-07 11:48 -30.06061 24.04924 39115 ft 487 kts 41°
2026-05-07 11:49 -30.01338 24.10543 39112 ft 487 kts 41°
2026-05-07 11:49 -29.96613 24.16157 39111 ft 488 kts 41°
2026-05-07 11:50 -29.91912 24.21734 39118 ft 488 kts 41°
2026-05-07 11:50 -29.87174 24.27347 39114 ft 489 kts 41°
2026-05-07 11:51 -29.82431 24.32959 39117 ft 489 kts 41°
2026-05-07 11:51 -29.77684 24.38566 39114 ft 489 kts 41°
2026-05-07 11:52 -29.72968 24.44129 39120 ft 489 kts 41°
2026-05-07 11:52 -29.68210 24.49734 39095 ft 489 kts 40°
2026-05-07 11:53 -29.63463 24.55318 39106 ft 488 kts 40°
2026-05-07 11:53 -29.58716 24.60893 39118 ft 488 kts 40°
2026-05-07 11:54 -29.54001 24.66423 39126 ft 488 kts 40°
2026-05-07 11:54 -29.49256 24.71979 39118 ft 488 kts 40°
2026-05-07 11:55 -29.44505 24.77535 39114 ft 487 kts 40°
2026-05-07 11:55 -29.39754 24.83084 39123 ft 487 kts 40°
2026-05-07 11:56 -29.35036 24.88585 39092 ft 487 kts 40°
2026-05-07 11:56 -29.30288 24.94114 39108 ft 487 kts 40°
2026-05-07 11:57 -29.25536 24.99641 39128 ft 486 kts 40°
2026-05-07 11:57 -29.20783 25.05160 39121 ft 487 kts 40°
2026-05-07 11:58 -29.16061 25.10636 39120 ft 487 kts 40°
2026-05-07 11:58 -29.11308 25.16140 39125 ft 487 kts 40°
2026-05-07 11:59 -29.06663 25.21511 39124 ft 487 kts 40°
2026-05-07 11:59 -29.01890 25.27023 39120 ft 488 kts 40°
2026-05-07 12:00 -28.97121 25.32523 39125 ft 487 kts 40°
2026-05-07 12:00 -28.92381 25.37982 39119 ft 487 kts 39°
2026-05-07 12:01 -28.87607 25.43472 39128 ft 487 kts 39°
2026-05-07 12:01 -28.82830 25.48958 39126 ft 488 kts 39°
2026-05-07 12:02 -28.78038 25.54454 39120 ft 488 kts 39°
2026-05-07 12:02 -28.73279 25.59905 39133 ft 489 kts 39°
2026-05-07 12:03 -28.68477 25.65397 39121 ft 489 kts 39°
2026-05-07 12:03 -28.63674 25.70883 39129 ft 489 kts 39°
2026-05-07 12:04 -28.58873 25.76360 39125 ft 489 kts 39°
2026-05-07 12:04 -28.54098 25.81798 39130 ft 489 kts 39°
2026-05-07 12:05 -28.49296 25.87262 39131 ft 488 kts 39°
2026-05-07 12:05 -28.44496 25.92715 39131 ft 488 kts 39°
2026-05-07 12:06 -28.39699 25.98160 39126 ft 487 kts 38°
2026-05-07 12:06 -28.34940 26.03550 39132 ft 487 kts 38°
2026-05-07 12:07 -28.30144 26.08972 39134 ft 486 kts 38°
2026-05-07 12:07 -28.25358 26.14376 39133 ft 486 kts 38°
2026-05-07 12:08 -28.20568 26.19779 39140 ft 485 kts 38°
2026-05-07 12:08 -28.15814 26.25136 39140 ft 485 kts 38°
2026-05-07 12:09 -28.11029 26.30521 39131 ft 485 kts 38°
2026-05-07 12:09 -28.06238 26.35907 39135 ft 485 kts 38°
2026-05-07 12:10 -28.01453 26.41277 39138 ft 485 kts 38°
2026-05-07 12:10 -27.96659 26.46645 39104 ft 485 kts 38°
2026-05-07 12:11 -27.91901 26.51963 39131 ft 484 kts 38°
2026-05-07 12:11 -27.87111 26.57311 39120 ft 485 kts 37°
2026-05-07 12:12 -27.82309 26.62667 39138 ft 485 kts 37°
2026-05-07 12:12 -27.77507 26.68018 39143 ft 485 kts 37°
2026-05-07 12:13 -27.72729 26.73334 39140 ft 486 kts 37°
2026-05-07 12:13 -27.67915 26.78684 39144 ft 486 kts 37°
2026-05-07 12:14 -27.63095 26.84032 39141 ft 486 kts 37°
2026-05-07 12:14 -27.58262 26.89387 38854 ft 492 kts 36°
2026-05-07 12:14 -27.55811 26.92096 38304 ft 493 kts 37°
2026-05-07 12:15 -27.53402 26.94762 37740 ft 492 kts 36°
2026-05-07 12:15 -27.50965 26.97461 37183 ft 491 kts 36°
2026-05-07 12:15 -27.48527 27.00158 36623 ft 491 kts 36°
2026-05-07 12:15 -27.46096 27.02844 36061 ft 490 kts 36°
2026-05-07 12:16 -27.43658 27.05534 35440 ft 492 kts 36°
2026-05-07 12:16 -27.41206 27.08236 34797 ft 494 kts 36°
2026-05-07 12:16 -27.38745 27.10946 34153 ft 497 kts 36°
2026-05-07 12:16 -27.36267 27.13673 33375 ft 499 kts 36°
2026-05-07 12:17 -27.33820 27.16367 32679 ft 500 kts 37°
2026-05-07 12:17 -27.31341 27.19097 32123 ft 497 kts 36°
2026-05-07 12:17 -27.28890 27.21799 31771 ft 490 kts 36°
2026-05-07 12:17 -27.26480 27.24454 31453 ft 481 kts 36°
2026-05-07 12:18 -27.24093 27.27075 31027 ft 477 kts 36°
2026-05-07 12:18 -27.21727 27.29667 30590 ft 474 kts 36°
2026-05-07 12:18 -27.19343 27.32192 30116 ft 468 kts 33°
2026-05-07 12:18 -27.16894 27.34578 29572 ft 464 kts 32°
2026-05-07 12:19 -27.14435 27.36883 29080 ft 459 kts 31°
2026-05-07 12:19 -27.11981 27.39157 28606 ft 455 kts 31°
2026-05-07 12:19 -27.09586 27.41383 28145 ft 451 kts 32°
2026-05-07 12:19 -27.07183 27.43630 27693 ft 448 kts 32°
2026-05-07 12:20 -27.04801 27.45870 27213 ft 445 kts 32°
2026-05-07 12:20 -27.02442 27.48097 26751 ft 442 kts 32°
2026-05-07 12:20 -27.00100 27.50310 26305 ft 439 kts 32°
2026-05-07 12:20 -26.97775 27.52507 25857 ft 436 kts 32°
2026-05-07 12:21 -26.95461 27.54692 25410 ft 434 kts 33°
2026-05-07 12:21 -26.93157 27.56866 24946 ft 431 kts 33°
2026-05-07 12:21 -26.90873 27.59020 24575 ft 427 kts 33°
2026-05-07 12:21 -26.88658 27.61111 24409 ft 417 kts 33°
2026-05-07 12:22 -26.86460 27.63185 24215 ft 409 kts 33°
2026-05-07 12:22 -26.84306 27.65213 24044 ft 400 kts 33°
2026-05-07 12:22 -26.82183 27.67159 23851 ft 389 kts 27°
2026-05-07 12:22 -26.79879 27.68665 23456 ft 379 kts 19°
2026-05-07 12:23 -26.77526 27.69965 23073 ft 375 kts 17°
2026-05-07 12:23 -26.75181 27.71212 22708 ft 372 kts 17°
2026-05-07 12:23 -26.72851 27.72451 22342 ft 370 kts 17°
2026-05-07 12:23 -26.70533 27.73698 22008 ft 368 kts 18°
2026-05-07 12:24 -26.68239 27.74948 21658 ft 366 kts 18°
2026-05-07 12:24 -26.65991 27.76184 21311 ft 364 kts 18°
2026-05-07 12:24 -26.63727 27.77437 20976 ft 362 kts 18°
2026-05-07 12:24 -26.61477 27.78687 20618 ft 360 kts 18°
2026-05-07 12:25 -26.59239 27.79932 20292 ft 359 kts 18°
2026-05-07 12:25 -26.57005 27.81175 19958 ft 357 kts 18°
2026-05-07 12:25 -26.54788 27.82408 19627 ft 356 kts 19°
2026-05-07 12:25 -26.52576 27.83639 19282 ft 354 kts 19°
2026-05-07 12:26 -26.50373 27.84864 18942 ft 353 kts 19°
2026-05-07 12:26 -26.48174 27.86087 18606 ft 353 kts 19°
2026-05-07 12:26 -26.45982 27.87304 18236 ft 352 kts 19°
2026-05-07 12:26 -26.43791 27.88521 17884 ft 351 kts 19°
2026-05-07 12:27 -26.41640 27.89716 17539 ft 349 kts 19°
2026-05-07 12:27 -26.39471 27.90920 17200 ft 348 kts 19°
2026-05-07 12:27 -26.37309 27.92120 16862 ft 346 kts 20°
2026-05-07 12:27 -26.35160 27.93312 16536 ft 344 kts 20°
2026-05-07 12:28 -26.33023 27.94497 16203 ft 342 kts 20°
2026-05-07 12:28 -26.30901 27.95672 15852 ft 341 kts 20°
2026-05-07 12:28 -26.28788 27.96843 15548 ft 339 kts 20°
2026-05-07 12:28 -26.26677 27.98012 15222 ft 338 kts 20°
2026-05-07 12:29 -26.24577 27.99174 14903 ft 336 kts 20°
2026-05-07 12:29 -26.22516 28.00313 14594 ft 335 kts 20°
2026-05-07 12:29 -26.20426 28.01469 14273 ft 335 kts 20°
2026-05-07 12:29 -26.18341 28.02621 13942 ft 334 kts 21°
2026-05-07 12:30 -26.16265 28.03768 13580 ft 333 kts 21°
2026-05-07 12:30 -26.14194 28.04912 13246 ft 331 kts 21°
2026-05-07 12:30 -26.12137 28.06049 12917 ft 330 kts 21°
2026-05-07 12:30 -26.10090 28.07179 12592 ft 328 kts 21°
2026-05-07 12:31 -26.08046 28.08306 12208 ft 328 kts 21°
2026-05-07 12:31 -26.05995 28.09436 11810 ft 329 kts 22°
2026-05-07 12:31 -26.03947 28.10566 11477 ft 328 kts 22°
2026-05-07 12:31 -26.01932 28.11678 11169 ft 327 kts 22°
2026-05-07 12:32 -25.99893 28.12801 10867 ft 326 kts 22°
2026-05-07 12:32 -25.97882 28.13910 10720 ft 319 kts 22°
2026-05-07 12:32 -25.95913 28.14995 10588 ft 312 kts 22°
2026-05-07 12:32 -25.93990 28.16055 10465 ft 306 kts 23°
2026-05-07 12:33 -25.91348 28.19525 10213 ft 299 kts 77°
2026-05-07 12:33 -25.91250 28.21780 10089 ft 288 kts 102°
2026-05-07 12:33 -25.91805 28.23860 9958 ft 278 kts 114°
2026-05-07 12:34 -25.92527 28.25853 9681 ft 278 kts 117°
2026-05-07 12:34 -25.93286 28.27792 9421 ft 277 kts 117°
2026-05-07 12:34 -25.94169 28.29673 9162 ft 270 kts 135°
2026-05-07 12:34 -25.95615 28.30732 9089 ft 239 kts 172°
2026-05-07 12:35 -25.97192 28.30709 8850 ft 221 kts 196°
2026-05-07 12:35 -25.98687 28.30336 8555 ft 217 kts 199°
2026-05-07 12:35 -26.00125 28.29904 8266 ft 211 kts 200°
2026-05-07 12:35 -26.01519 28.29468 7998 ft 203 kts 200°
2026-05-07 12:36 -26.02823 28.29062 7711 ft 186 kts 199°
2026-05-07 12:36 -26.04022 28.28687 7460 ft 173 kts 200°
2026-05-07 12:36 -26.05160 28.28331 7270 ft 170 kts 200°
2026-05-07 12:36 -26.06270 28.27976 7060 ft 160 kts 200°
2026-05-07 12:37 -26.07315 28.27656 6843 ft 155 kts 200°
2026-05-07 12:37 -26.08361 28.27333 6662 ft 154 kts 199°
2026-05-07 12:37 -26.09379 28.27017 6451 ft 148 kts 199°
2026-05-07 12:37 -26.10366 28.26712 6146 ft 144 kts 199°
2026-05-07 12:38 -26.11301 28.26401 5955 ft 141 kts 199°
2026-05-07 12:38 -26.12287 28.26102 5799 ft 149 kts 197°
2026-05-07 12:38 -26.13272 28.25801 5585 ft 145 kts 197°
2026-05-07 12:38 -26.14209 28.25513 5512 ft 141 kts 195°